Location: Kershaw
(34.5481°N, 80.5823°W)
Time: 09:57:11
(UTC+00:00)

Altair - Pass Details

Date: 05 October 2022
Orbit: 1501 x 1682 km, 47.2° (Epoch: 30 November)

Event Time Altitude Azimuth Distance (km) Brightness Sun altitude
Rises 11:38:18 0° 274° (W) 4,787 9.4 2.9°
Reaches altitude 10° 11:41:39 10° 281° (W) 3,829 9.0 3.6°
Maximum altitude 11:50:48 42° 350° (N) 2,223 8.3 5.4°
Drops below altitude 10° 12:00:14 10° 59° (ENE) 3,937 10.5 7.4°
Sets 12:03:44 0° 66° (ENE) 4,933 11.2 8.1°
